Flag for Madagascar Weather past 2 weeks in Antananarivo, Madagascar

Now
70 °F

Passing clouds.


Feels Like: 70 °F
Forecast: 56 / 76 °F
Wind: 5 mph from North

Location: Antananarivo / Ivato

Current Time: Sep 22, 2014 at 10:00:43 AM

Latest Report: Sep 22, 2014 at 9:30 AM


Visibility: N/A

Pressure: 30.27 "Hg

Humidity: 73%

Dew point: 61 °F

Location of AntananarivoLocation

Historic Weather in Antananarivo — Graph

°F

Antananarivo temperature yesterday

Maximum temperature yesterday: 79 °F (at 3:00 PM)
Minimum temperature yesterday: 55 °F (at 5:00 AM)
Average temperature yesterday: 66 °F

Past Weeks' High & Low Weather Summary

 TemperatureHumidityPressure
High84 °F (Sep 13, 1:30 PM)100% (Sep 7, 9:00 AM)30.42 "Hg (Sep 7, 9:00 AM)
Low43 °F (Sep 14, 5:00 AM)16% (Sep 14, 12:00 PM)30.15 "Hg (Sep 17, 1:30 PM)
Average62 °F80%30.29 "Hg
* Reported Sep 7 9:00 AM — Sep 22 9:00 AM, Antananarivo, Weather by CustomWeather, © 2014

Note: Actual official high and low records may vary slightly from our data, if they occured in-between our weather recording intervals... More about our weather records

Advertising

Antananarivo weather history for previous 24 hours

 ConditionsComfort  
Time TempWeatherWind HumidityBarometerVisibility
9:00 AM
Sep 22
66 °FPassing clouds.5 mph73%30.27 "HgN/A
8:30 AM66 °FPassing clouds.2 mph78%30.27 "HgN/A
8:00 AM63 °FPassing clouds.3 mph88%30.27 "HgN/A
7:30 AM61 °FPassing clouds.2 mph88%30.27 "HgN/A
7:00 AM59 °FPassing clouds.1 mph100%30.24 "HgN/A
6:30 AM55 °FPassing clouds.2 mph100%30.24 "HgN/A
6:00 AM52 °FPassing clouds.5 mph100%30.24 "HgN/A
5:30 AM52 °FPassing clouds.3 mph100%30.24 "HgN/A
5:00 AM52 °FPassing clouds.3 mph100%30.21 "HgN/A
4:30 AM52 °FPassing clouds.5 mph100%30.21 "HgN/A
4:00 AM54 °FPassing clouds.7 mph100%30.21 "HgN/A
3:30 AM55 °FPassing clouds.8 mph100%30.21 "HgN/A
3:00 AM54 °FPassing clouds.5 mph100%30.21 "HgN/A
2:30 AM55 °FPassing clouds.2 mph100%30.21 "HgN/A
2:00 AM55 °FPassing clouds.5 mph100%30.21 "HgN/A
1:30 AM55 °FPassing clouds.7 mph100%30.24 "HgN/A
1:00 AM57 °FPassing clouds.7 mph100%30.24 "HgN/A
12:30 AM59 °FPassing clouds.9 mph100%30.24 "HgN/A
11:30 PM
Sep 21
59 °FPassing clouds.6 mph100%30.24 "HgN/A
11:00 PM59 °FPassing clouds.7 mph100%30.27 "HgN/A
10:30 PM59 °FPassing clouds.7 mph100%30.27 "HgN/A
10:00 PM59 °FPassing clouds.5 mph100%30.27 "HgN/A
9:30 PM59 °FPassing clouds.7 mph100%30.27 "HgN/A
9:00 PM59 °FPassing clouds.10 mph100%30.24 "HgN/A
8:30 PM61 °FPassing clouds.7 mph94%30.24 "HgN/A
8:00 PM61 °FPassing clouds.9 mph94%30.24 "HgN/A
7:30 PM63 °FPassing clouds.15 mph88%30.24 "HgN/A
7:00 PM64 °FPassing clouds.15 mph83%30.21 "HgN/A
6:30 PM66 °FPassing clouds.14 mph78%30.21 "HgN/A
6:00 PM66 °FPassing clouds.14 mph73%30.18 "HgN/A
5:30 PM70 °FPassing clouds.10 mph64%30.18 "HgN/A
5:00 PM72 °FPassing clouds.10 mph61%30.15 "HgN/A
4:30 PM75 °FPassing clouds.9 mph50%30.15 "HgN/A
4:00 PM77 °FPassing clouds.7 mph47%30.15 "HgN/A
3:30 PM79 °FPassing clouds.5 mph48%30.15 "HgN/A
3:00 PM79 °FPassing clouds.5 mph48%30.15 "HgN/A
2:30 PM77 °FScattered clouds.7 mph47%30.15 "HgN/A
2:00 PM77 °FPassing clouds.8 mph47%30.18 "HgN/A
1:30 PM77 °FPassing clouds.8 mph47%30.18 "HgN/A
1:00 PM77 °FPassing clouds.8 mph51%30.18 "HgN/A
12:30 PM75 °FPassing clouds.8 mph54%30.21 "HgN/A
12:00 PM75 °FPassing clouds.9 mph57%30.21 "HgN/A
11:30 AM75 °FPassing clouds.8 mph54%30.24 "HgN/A
11:00 AM73 °FPassing clouds.8 mph57%30.24 "HgN/A
10:30 AM72 °FPassing clouds.7 mph61%30.27 "HgN/A
10:00 AM70 °FScattered clouds.9 mph60%30.27 "HgN/A
Weather by CustomWeather, © 2014

See weather overviewHow to use our weather pages